2024/03/02 00:00:00, 3.1,-2.2
2024/03/02 00:10:00, 3.8,-2.5
2024/03/02 00:20:00, 4.2,-2.7
2024/03/02 00:30:00, 4.7,-3.0
2024/03/02 00:40:00, 5.7,-2.8
2024/03/02 00:50:00, 6.5,-2.8
2024/03/02 01:00:00, 6.6,-2.5
2024/03/02 01:10:00, 7.4,-3.2
2024/03/02 01:20:00, 8.8,-3.3
2024/03/02 01:30:00, 9.6,-2.8
2024/03/02 01:40:00, 9.8,-2.9
2024/03/02 01:50:00,10.3,-2.8
2024/03/02 02:00:00,11.0,-2.7
2024/03/02 02:10:00,12.1,-2.8
2024/03/02 02:20:00,12.6,-2.7
2024/03/02 02:30:00,12.4,-2.8
2024/03/02 02:40:00,13.4,-2.8
2024/03/02 02:50:00,13.9,-2.9
2024/03/02 03:00:00,14.5,-2.7
2024/03/02 03:10:00,15.0,-2.2
2024/03/02 03:20:00,15.1,-2.9
2024/03/02 03:30:00,14.9,-2.8
2024/03/02 03:40:00,16.2,-3.2
2024/03/02 03:50:00,16.6,-3.2
2024/03/02 04:00:00,17.4,-3.3
2024/03/02 04:10:00,17.5,-3.4
2024/03/02 04:20:00,17.6,-3.2
2024/03/02 04:30:00,18.2,-3.5
2024/03/02 04:40:00,18.7,-3.2
2024/03/02 04:50:00,19.5,-3.4
2024/03/02 05:00:00,19.6,-3.4
2024/03/02 05:10:00,19.9,-3.4
2024/03/02 05:20:00,20.5,-3.5
2024/03/02 05:30:00,20.7,-3.2
2024/03/02 05:40:00,20.6,-3.4
2024/03/02 05:50:00,21.4,-3.4
2024/03/02 06:00:00,21.5,-3.7
2024/03/02 06:10:00,21.4,-3.8
2024/03/02 06:20:00,21.5,-3.7
2024/03/02 06:30:00,22.4,-3.8
2024/03/02 06:40:00,22.7,-4.2
2024/03/02 06:50:00,22.7,-3.8
2024/03/02 07:00:00,22.9,-3.4
2024/03/02 07:10:00,22.8,-3.6
2024/03/02 07:20:00,23.0,-3.4
2024/03/02 07:30:00,23.4,-3.5
2024/03/02 07:40:00,24.1,-2.8
2024/03/02 07:50:00,24.8,-3.2
2024/03/02 08:00:00,25.1,-2.7
2024/03/02 08:10:00,24.8,-1.9
2024/03/02 08:20:00,24.5,-1.9
2024/03/02 08:30:00,24.4,-2.1
2024/03/02 08:40:00,24.8,-2.5
2024/03/02 08:50:00,25.5,-1.2
2024/03/02 09:00:00,25.7,-1.7
2024/03/02 09:10:00,26.5,-2.2
2024/03/02 09:20:00,26.4,-2.3
2024/03/02 09:30:00,26.4, 0.4
2024/03/02 09:40:00,26.3, 4.0
2024/03/02 09:50:00,25.4, 0.3
2024/03/02 10:00:00,25.8,-2.0
2024/03/02 10:10:00,26.8, 1.4
2024/03/02 10:20:00,26.8, 2.7
2024/03/02 10:30:00,26.5, 5.0
2024/03/02 10:40:00,25.6, 1.0
2024/03/02 10:50:00,25.2,-0.8
2024/03/02 11:00:00,25.5,-1.3
2024/03/02 11:10:00,25.8,-0.3
2024/03/02 11:20:00,25.7, 1.2
2024/03/02 11:30:00,25.6, 2.9
2024/03/02 11:40:00,24.9, 5.2
2024/03/02 11:50:00,24.3, 6.4
2024/03/02 12:00:00,23.5, 3.5
2024/03/02 12:10:00,23.4, 3.6
2024/03/02 12:20:00,23.4, 4.7
2024/03/02 12:30:00,22.3, 5.2
2024/03/02 12:40:00,21.2, 5.0
2024/03/02 12:50:00,20.2, 2.9
2024/03/02 13:00:00,20.8, 2.0
2024/03/02 13:10:00,21.0, 0.4
2024/03/02 13:20:00,21.3, 0.4
2024/03/02 13:30:00,21.6, 2.5
2024/03/02 13:40:00,20.8, 1.4
2024/03/02 13:50:00,21.0, 2.3
2024/03/02 14:00:00,21.1, 3.1
2024/03/02 14:10:00,20.4, 2.7
2024/03/02 14:20:00,20.1, 2.3
2024/03/02 14:30:00,19.3, 2.3
2024/03/02 14:40:00,19.1, 2.4
2024/03/02 14:50:00,18.4, 1.6
2024/03/02 15:00:00,17.6, 1.9
2024/03/02 15:10:00,16.6, 1.7
2024/03/02 15:20:00,16.2, 1.2
2024/03/02 15:30:00,16.4, 2.3
2024/03/02 15:40:00,16.0, 0.6
2024/03/02 15:50:00,16.7, 1.5
2024/03/02 16:00:00,16.0, 1.3
2024/03/02 16:10:00,15.7, 1.0
2024/03/02 16:20:00,15.5, 0.5
2024/03/02 16:30:00,15.3, 0.1
2024/03/02 16:40:00,14.9,-0.8
2024/03/02 16:50:00,15.0,-2.4
2024/03/02 17:00:00,14.7,-1.4
2024/03/02 17:10:00,14.6,-1.1
2024/03/02 17:20:00,14.5,-1.2
2024/03/02 17:30:00,14.5,-1.7
2024/03/02 17:40:00,14.4,-2.1
2024/03/02 17:50:00,14.3,-2.2
2024/03/02 18:00:00,14.2,-2.6
2024/03/02 18:10:00,14.0,-2.4
2024/03/02 18:20:00,14.0,-3.1
2024/03/02 18:30:00,13.9,-3.1
2024/03/02 18:40:00,13.9,-3.6
2024/03/02 18:50:00,13.8,-4.0
2024/03/02 19:00:00,13.8,-4.2
2024/03/02 19:10:00,13.7,-4.1
2024/03/02 19:20:00,13.5,-4.4
2024/03/02 19:30:00,13.5,-4.7
2024/03/02 19:40:00,13.3,-4.8
2024/03/02 19:50:00,13.1,-4.5
2024/03/02 20:00:00,12.9,-4.0
2024/03/02 20:10:00,12.9,-4.2
2024/03/02 20:20:00,13.0,-4.6
2024/03/02 20:30:00,13.1,-4.6
2024/03/02 20:40:00,12.8,-4.9
2024/03/02 20:50:00,12.7,-5.1
2024/03/02 21:00:00,12.5,-5.2
2024/03/02 21:10:00,12.5,-5.3
2024/03/02 21:20:00,12.5,-5.4
2024/03/02 21:30:00,12.5,-5.6
2024/03/02 21:40:00,12.4,-5.8
2024/03/02 21:50:00,12.3,-5.8
2024/03/02 22:00:00,12.2,-6.0
2024/03/02 22:10:00,12.2,-5.7
2024/03/02 22:20:00,12.3,-5.9
2024/03/02 22:30:00,12.2,-5.9
2024/03/02 22:40:00,12.2,-6.2
2024/03/02 22:50:00,12.1,-5.9
2024/03/02 23:00:00,12.0,-6.5
2024/03/02 23:10:00,12.0,-6.6
2024/03/02 23:20:00,12.1,-6.5
2024/03/02 23:30:00,13.0,-6.7
2024/03/02 23:40:00,12.4,-6.6
2024/03/02 23:50:00,11.8,-6.6
